Regional Weather Roundup
Issued by NWS

Home | Current Version | Previous Version | Text Only | Print | Product List | Glossary Off
Versions: 1 2 3 4 5 6 7 8 9 10 11 12 13 14 15 16 17 18 19 20 21 22 23 24 25 26 27 28 29 30 31 32 33 34 35 36 37 38 39 40 41 42 43 44 45 46 47 48 49 50

000
ASUS43 KMKX 292059
RWRWI

WISCONSIN REGIONAL WEATHER ROUNDUP
NATIONAL WEATHER SERVICE MILWAUKEE/SULLIVAN WI
300 PM CST THU JAN 29 2015

NOTE: "FAIR" INDICATES FEW OR NO CLOUDS BELOW 12,000 FEET WITH NO
SIGNIFICANT WEATHER AND/OR OBSTRUCTIONS TO VISIBILITY.

WIZ001-002-006>008-014>016-023>028-292200-
NORTHWEST WISCONSIN

CITY           SKY/WX    TMP DP  RH WIND       PRES   REMARKS
SUPERIOR ARPT  MOSUNNY   22  11  63 NW23      30.28R WCI   6
ASHLAND        CLOUDY    25  13  60 NW15      30.21R WCI  13
HAYWARD        CLOUDY    24  13  62 N13G23    30.19R WCI  12
SIREN          CLOUDY    26  15  63 NW16G25   30.24R WCI  13
CUMBERLAND     FLURRIES  27  18  69 NW20      30.18R WCI  13
RICE LAKE      CLOUDY    28  19  69 NW16G22   30.20R WCI  16
CHETEK         CLOUDY    28  20  71 W9G17     30.17R WCI  19
LADYSMITH      CLOUDY    29  19  67 NW17G28   30.14R WCI  17
EAU CLAIRE     CLOUDY    29  19  66 NW21G29   30.18R WCI  16
MENOMONIE      CLOUDY    30  20  67 NW23G29   30.19R WCI  16
NEW RICHMOND   CLOUDY    28  18  66 NW17G25   30.24R WCI  15
OSCEOLA        CLOUDY    29  18  63 NW14G22   30.28R WCI  18
$$

WIZ003>005-009-010-017-018-292200-
NORTH CENTRAL WISCONSIN

CITY           SKY/WX    TMP DP  RH WIND       PRES   REMARKS
MANITOWISH WTR LGT SNOW  22  18  83 N17G25    30.06R WCI   8
ARBOR VITAE    LGT SNOW  24  19  78 N26G35    30.05R WCI   8
WOODRUFF       LGT SNOW  24  19  78 N26G35    30.05R WCI   8
RHINELANDER    CLOUDY    24  16  71 NW15G23   30.03R WCI  11
EAGLE RIVER    LGT SNOW  23  17  76 N22       30.02R WCI   8
LAND O LAKES   LGT SNOW  22  18  85 N21G30    30.03R WCI   7
PHILLIPS       CLOUDY    26  17  67 NW16G26   30.07R WCI  14
TOMAHAWK       CLOUDY    28  18  65 NW13G21   30.04R WCI  17
MEDFORD        CLOUDY    29  19  66 NW22G29   30.05R WCI  16
MERRILL        CLOUDY    31  19  60 N18G25    30.03R WCI  19
$$

WIZ029-030-035-036-043>047-292200-
CENTRAL WISCONSIN

CITY           SKY/WX    TMP DP  RH WIND       PRES   REMARKS
WAUSAU         CLOUDY    31  17  56 NW16G26   30.02R WCI  20
MOSINEE        CLOUDY    32  19  59 N22G33    30.04R WCI  19
MARSHFIELD     PTSUNNY   32  19  58 NW26G35   30.07R WCI  18
STEVENS POINT  CLOUDY    32  18  55 NW14G25   30.03R WCI  22
WAUPACA        CLOUDY    36  23  58 NW15G24   30.01R WCI  26
WAUTOMA        NOT AVBL
WISC RAPIDS    CLOUDY    33  18  53 NW22G32   30.07R WCI  21
CAMP DOUGLAS   NOT AVBL
$$

WIZ011>013-019>022-031-037>040-048>050-292200-
NORTHEAST WISCONSIN

CITY           SKY/WX    TMP DP  RH WIND       PRES   REMARKS
ANTIGO         CLOUDY    27  19  72 NW22G29   29.99R WCI  13
SHAWANO        CLOUDY    35  20  55 NW15G24   29.99R WCI  26
OCONTO         CLOUDY    33  21  60 MISG      29.96R
STURGEON BAY   CLOUDY    34  21  60 NW23G29   29.96R WCI  22
GREEN BAY      CLOUDY    34  23  64 NW20      29.98R WCI  23
MANITOWOC      NOT AVBL
APPLETON       CLOUDY    34  21  60 NW18G24   29.99R WCI  23
CLINTONVILLE   CLOUDY    34  19  55 N16G29    29.99R WCI  23
OSHKOSH        CLOUDY    35  24  64 NW17G26   30.00R WCI  25
$$

WIZ032>034-041-042-053>061-292200-
SOUTHWEST WISCONSIN

CITY           SKY/WX    TMP DP  RH WIND       PRES   REMARKS
LA CROSSE      CLOUDY    36  22  56 NW24G32   30.16R WCI  24
SPARTA         CLOUDY    34  22  61 NW12G23   30.13R WCI  25
VIROQUA        CLOUDY    32  23  68 NW21G31   30.10R WCI  20
BOSCOBEL       CLOUDY    37  24  59 NW14G20   30.14R WCI  28
PRAIRIE DU CHI CLOUDY    35  25  65 NW14G25   30.14R WCI  26
PLATTEVILLE    CLOUDY    35  27  73 NW21G26   30.09R WCI  23
$$

WIZ056-057-062-063-064-067-068-292200-
SOUTH CENTRAL WISCONSIN

CITY           SKY/WX    TMP DP  RH WIND       PRES   REMARKS
REEDSBURG      CLOUDY    33  24  70 NW12G25   30.07R WCI  24
BARABOO/DELLS  CLOUDY    33  23  66 NW16      30.05R WCI  23
LONE ROCK      NOT AVBL
MINERAL POINT  CLOUDY    36  27  69 NW15G21   30.07R WCI  26
MADISON        CLOUDY    35  23  61 NW17G23   30.05R WCI  25
MIDDLETON      CLOUDY    36  25  65 NW20G26   30.05R WCI  25
WATERTOWN      CLOUDY    33  26  73 NW16G22   30.01R WCI  23
MONROE         CLOUDY    34  28  80 NW14G25   30.04R WCI  24
JANESVILLE     CLOUDY    36  27  69 NW16      30.04R WCI  26
$$

WIZ051-052-058>065-066-070>072-292200-
SOUTHEAST WISCONSIN

CITY           SKY/WX    TMP DP  RH WIND       PRES   REMARKS
MILWAUKEE      CLOUDY    35  23  61 NW21G26   30.00R WCI  24
WAUKESHA       CLOUDY    32  25  74 NW17G25   30.00R WCI  21
MILWAUKEE/TIMM CLOUDY    34  23  64 NW17G28   30.00R WCI  23
RACINE         CLOUDY    35  24  64 NW20G25   30.01R WCI  24
BURLINGTON     CLOUDY    32  26  77 NW22      30.00R WCI  19
KENOSHA        CLOUDY    35  26  69 NW16      30.00R WCI  25
FOND DU LAC    CLOUDY    35  24  64 NW14      30.00R WCI  26
SHEBOYGAN      CLOUDY    34  24  67 NW16      29.97R WCI  24
WEST BEND      CLOUDY    32  23  69 NW18G30   29.98R WCI  20
JUNEAU         CLOUDY    33  25  71 NW13G23   30.01R WCI  24
$$

LSZ147-162-292200-
LAKE SUPERIOR

STATION/POSITION TIME  TEMP    WIND        PRES    WAVE
                       AIR SEA DIR/SP/G            HT/PER
                 (UTC) (F)     (DEG/KT/KT) (MB)    (FT/S)
DEVILS ISLAND    2000   23     330/ 25/ 28 1023.3R
PORT WING        2000   25     300/ 20/ 25 1023.0
SAXON HARBOR     2020   26     340/ 21     1021.7R
$$

LMZ867-665-643>646-292200-
LAKE MICHIGAN

STATION/POSITION TIME  TEMP    WIND        PRES    WAVE
                       AIR SEA DIR/SP/G            HT/PER
                 (UTC) (F)     (DEG/KT/KT) (MB)    (FT/S)
NORTHPORT PIER   2002   29                 1012.5R
SISTER BAY       2013   32     340/ 24/ 27   N/A
KEWAUNEE LAKESHO 2000   34     320/  9/ 19 1012.3R
SHEBOYGAN LAKESH 2000   34     330/ 17/ 19 1014.8R
PORT WASHINGTON  2000   35     330/ 11/ 18 1015.2R
MILWAUKEE LAKESH 2000   34     320/ 11/ 19   N/A
KENOSHA   LAKESH 2000   34     320/ 15/ 21 1014.6R
$$

TC  - TEMPERATURE IN CELSIUS
VSB - VISIBILITY IN STATUTE MILES
WCI - WIND CHILL INDEX
HX  - HEAT INDEX



USA.gov is the U.S. government's official web portal to all federal, state and local government web resources and services.